User: anonymous   Login
Location: Unspecified
(0.0000°N, 0.0000°E)
Time: 13:40:20
(UTC+00:00)
Language:

CAPE 1 - Orbit

View from above orbital plane
View from above orbital plane
View from above satellite
View from above satellite

Ground track
Ground track

The orbit data is extracted from the following two-line orbital elements,

1 31130U 07012P   18173.79662389 +.00000126 +00000-0 +36942-4 0  9995
2 31130 098.1241 117.3272 0097189 128.0391 232.9628 14.56301484593191
Epoch (UTC): 22 June 2018 19:07:08
Eccentricity: 0.0097189
inclination: 98.1241°
perigee height: 636 km
apogee height: 774 km
right ascension of ascending node: 117.3272°
argument of perigee: 128.0391°
revolutions per day: 14.56301484
mean anomaly at epoch: 232.9628°
orbit number at epoch: 59319

The dashed part of the orbit path shows where the satellite is in the earth's shadow,  

DLR